COSMOS 1275 DEB, 12649

Orbit data source: Space-Track

COSMOS 1275 DEB, 12649 is space debris in LEO originally from a launch on Thu, 04 Jun 1981 UTC launched from the Plesetsk Missile And Space Complex (PKMTR). Debris objects in space refer to the collection of defunct objects orbiting the Earth. Examples of debris include non-operational satellites, rocket bodies, and fragments generated from explosions, collisions, or faulty payload assembly.

Loading next visibility...
Identifier
12649, 1981-053D
Orbit
LEO
Country
Flag of CISCIS
Related business
Manufacturer
Unknown
Mission
Spacecraft
Bus & Motor
Unknown
Mass
Unknown
Launch date (UTC)
1981-06-04 (45 years ago)
Launch vehicle
Unknown
Launch site
Plesetsk Missile And Space Complex (PKMTR)
Object type
Payload
Rocket body
Debris
Shape & HBR
Unknown shape, 0.2 m
Radar Cross Section
Medium (>0.1 m² and <1 m²)

Expand to show TLE details & history
Last TLE update: 18 hours ago

TLE from 18 hours ago
0 COSMOS 1275 DEB
1 12649U 81053D   26119.26751691  .00000263  00000-0  23156-3 0  9996
2 12649  82.9180 230.6148 0046910 286.3948 100.8262 13.81410620244540
Epoch: 2026-04-29T06:25Z
TLE epoch observation values (Epoch: 2026-04-29T06:25:13.461Z)
Latitude
27.55821°
Longitude
-79.22423°
Altitude
968.887 km
Speed
7.366 km/s
True Right ascension
15h 37m 15s
True Declination
27° 25' 17"
Sunlit
Object was in full shadow at epoch
Visualization orbit readout
Latitude
Unknown
Longitude
Unknown
Altitude
Unknown
Speed
Unknown
Apparent Right ascension
Unknown
Apparent Declination
Unknown
Sunlit
N/A
Visualization observer readout
Local Sidereal Time
07:46:45
Azimuth
Unknown
Elevation
Unknown
Doppler factor
Unknown
Orbital elements
Apogee altitude
990.433 km
Perigee altitude
921.624 km
Semi-major axis
7,334.165 km
Eccentricity
0.00469
Inclination
82.918°
RAAN
230.6148°
Arg. of periapsis
286.3948°
True anomaly
101.35359°
Mean anomaly
100.8262°
Eccentric anomaly
101.08996°
Mean motion
3.45555 °/min
Orbital period
104.18 mins
BSTAR
0.00023156
Loading maneuver chart data...
Computing Atmospheric mass density...
Loading historical data...
Loading historical data...
Loading historical data...
Loading historical data...
Loading historical data...
Loading historical data...
Loading historical data...

Documentation

Showing up to 5 results
|